Regional Weather Roundup
Issued by NWS

Home | Current Version | Previous Version | Text Only | Print | Product List | Glossary On
Versions: 1 2 3 4 5 6 7 8 9 10 11 12 13 14 15 16 17 18 19 20 21 22 23 24 25 26 27 28 29 30 31 32 33 34 35 36 37 38 39 40 41 42 43 44 45 46 47 48 49 50
722
ASUS43 KMKX 031011
RWRWI

WISCONSIN REGIONAL WEATHER ROUNDUP
NATIONAL WEATHER SERVICE MILWAUKEE/SULLIVAN WI
400 AM CST SAT DEC 03 2016

NOTE: "FAIR" INDICATES FEW OR NO CLOUDS BELOW 12,000 FEET WITH NO
SIGNIFICANT WEATHER AND/OR OBSTRUCTIONS TO VISIBILITY.

WIZ001-002-006>008-014>016-023>028-031100-
NORTHWEST WISCONSIN

CITY           SKY/WX    TMP DP  RH WIND       PRES   REMARKS
SUPERIOR ARPT  CLOUDY    29  24  81 NW5       30.28F WCI  24
ASHLAND        NOT AVBL
HAYWARD        NOT AVBL
SIREN          CLOUDY    29  24  83 NW5       30.27F WCI  24
CUMBERLAND     CLOUDY    28  23  80 W5        30.26S WCI  23
RICE LAKE      NOT AVBL
CHETEK         CLOUDY    29  25  84 CALM      30.27F
LADYSMITH      NOT AVBL
EAU CLAIRE     CLOUDY    30  24  78 W5        30.28F WCI  25
MENOMONIE      CLOUDY    31  26  81 SW5       30.29S WCI  26
NEW RICHMOND   CLOUDY    29  25  84 W3        30.29S
OSCEOLA        CLOUDY    30  25  81 CALM      30.32S
$$

WIZ003>005-009-010-017-018-031100-
NORTH CENTRAL WISCONSIN

CITY           SKY/WX    TMP DP  RH WIND       PRES   REMARKS
MANITOWISH WTR CLOUDY    26  26 100 W3        30.22F
ARBOR VITAE    CLOUDY    28  26  92 SW3       30.22F
WOODRUFF       CLOUDY    28  26  92 SW3       30.22F
RHINELANDER    CLOUDY    28  25  88 W6        30.23S WCI  22
EAGLE RIVER    CLOUDY    28  28 100 CALM      30.22S FOG
LAND O LAKES   CLOUDY    28  27  93 W3        30.23S
PHILLIPS       NOT AVBL
TOMAHAWK       CLOUDY    26  22  85 W3        30.25S
MEDFORD        CLOUDY    27  22  81 W3        30.24S
MERRILL        NOT AVBL
$$

WIZ029-030-035-036-043>047-031100-
CENTRAL WISCONSIN

CITY           SKY/WX    TMP DP  RH WIND       PRES   REMARKS
WAUSAU         CLOUDY    28  22  78 NW7       30.25  WCI  21
MOSINEE        CLOUDY    28  27  93 NW8       30.27S WCI  20
MARSHFIELD     CLOUDY    28  22  78 W3        30.25
STEVENS POINT  CLOUDY    28  21  77 W6        30.28S WCI  21
WAUPACA        NOT AVBL
WAUTOMA        NOT AVBL
WISC RAPIDS    CLOUDY    30  24  78 W3        30.29
CAMP DOUGLAS   CLOUDY    30  22  71 SW5       30.30R WCI  26
$$

WIZ011>013-019>022-031-037>040-048>050-031100-
NORTHEAST WISCONSIN

CITY           SKY/WX    TMP DP  RH WIND       PRES   REMARKS
ANTIGO         CLOUDY    28  24  85 W6        30.24S WCI  21
SHAWANO        NOT AVBL
OCONTO         CLOUDY    33  28  81 W7        30.27S WCI  26
STURGEON BAY   CLOUDY    35  29  78 NW8       30.26S WCI  29
GREEN BAY      NOT AVBL
MANITOWOC      CLOUDY    33  27  78 MISG      30.29
APPLETON       CLOUDY    32  23  69 W6        30.26S WCI  26
CLINTONVILLE   NOT AVBL
OSHKOSH        CLOUDY    31  22  69 W5        30.28S WCI  26
$$

WIZ032>034-041-042-053>061-031100-
SOUTHWEST WISCONSIN

CITY           SKY/WX    TMP DP  RH WIND       PRES   REMARKS
LA CROSSE      NOT AVBL
SPARTA         CLOUDY    31  23  73 SW5       30.31S WCI  26
VIROQUA        CLOUDY    28  23  81 W9        30.30S WCI  20
BOSCOBEL       CLOUDY    32  22  66 SW7       30.35R WCI  26
PRAIRIE DU CHI CLOUDY    31  22  69 W5        30.35S WCI  26
PLATTEVILLE    CLOUDY    30  25  81 W7        30.33F WCI  24
$$

WIZ056-057-062-063-064-067-068-031100-
SOUTH CENTRAL WISCONSIN

CITY           SKY/WX    TMP DP  RH WIND       PRES   REMARKS
REEDSBURG      NOT AVBL
BARABOO/DELLS  CLOUDY    30  22  73 CALM      30.30R
LONE ROCK      CLOUDY    31  21  66 W6        30.34  WCI  25
MINERAL POINT  CLOUDY    32  25  74 W5        30.31S WCI  27
MADISON        CLOUDY    30  22  72 CALM      30.32R
MIDDLETON      CLOUDY    32  25  76 W5        30.31S WCI  27
WATERTOWN      CLOUDY    30  24  77 NW3       30.30F
MONROE         CLOUDY    30  23  74 W7        30.31S WCI  23
JANESVILLE     CLOUDY    32  27  80 W3        30.32S
$$

WIZ051-052-058>065-066-070>072-031100-
SOUTHEAST WISCONSIN

CITY           SKY/WX    TMP DP  RH WIND       PRES   REMARKS
MILWAUKEE      CLOUDY    33  23  66 NW5       30.31  WCI  29
WAUKESHA       CLOUDY    30  23  74 W5        30.32R WCI  25
MILWAUKEE/TIMM CLOUDY    32  21  64 W6        30.32R WCI  26
RACINE         CLOUDY    32  23  69 W3        30.33R
BURLINGTON     CLOUDY    31  23  73 CALM      30.31F
KENOSHA        CLOUDY    32  23  69 W5        30.32R WCI  27
FOND DU LAC    CLOUDY    31  21  66 NW8       30.30R WCI  23
SHEBOYGAN      CLOUDY    32  24  72 W7        30.29S WCI  26
WEST BEND      CLOUDY    30  23  74 W6        30.29F WCI  24
JUNEAU         CLOUDY    30  23  75 CALM      30.30F
$$

LSZ147-162-031100-
LAKE SUPERIOR

STATION/POSITION TIME  TEMP    WIND        PRES    WAVE
                       AIR SEA DIR/SP/G            HT/PER
                 (UTC) (F)     (DEG/KT/KT) (MB)    (FT/S)
DEVILS ISLAND    1000   32     320/  4/  6 1025.4F
PORT WING        0940   31     200/  4/  7 1025.1S
SAXON HARBOR     0940   30     190/  5/  8 1024.7F
$$

LMZ867-665-643>646-031100-
LAKE MICHIGAN

STATION/POSITION TIME  TEMP    WIND        PRES    WAVE
                       AIR SEA DIR/SP/G            HT/PER
                 (UTC) (F)     (DEG/KT/KT) (MB)    (FT/S)
CHAMBERS ISLAND  0940   36     290/  6/ 11 1023.7F
NORTHPORT PIER   0940   37     320/ 10/ 13 1024.0S
SISTER BAY       0923   36     330/ 14/ 17   N/A
ALGOMA LAKESHORE 0936          310/  5/  8   N/A
KEWAUNEE LAKESHO 0942   33     280/  6/  9 1024.2F
SHEBOYGAN LAKESH 1000   33     260/ 10/ 13 1026.2R
PORT WASHINGTON  0930   32     290/  4/ 10 1027.1F
MILWAUKEE LAKESH 0950   32     270/  5/  7   N/A
S MID LAKE BUOY  0950   35 49  270/  6/  8 1026.5R   2/ 5
KENOSHA   LAKESH 1000   33     300/  6/  8 1026.8
$$

TC  - TEMPERATURE IN CELSIUS
VSB - VISIBILITY IN STATUTE MILES
WCI - WIND CHILL INDEX
HX  - HEAT INDEX





USA.gov is the U.S. government's official web portal to all federal, state and local government web resources and services.